Location: Kershaw
(34.5481°N, 80.5823°W)
Time: 22:51:47
(UTC+00:00)

Transit 4A - Pass Details

Date: 13 October 2022
Orbit: 871 x 972 km, 66.8° (Epoch: 09 December)

Event Time Altitude Azimuth Distance (km) Brightness Sun altitude
Rises 23:46:23 0° 185° (S) 3,611 11.1 -12.3°
Reaches altitude 10° 23:49:04 10° 179° (S) 2,656 10.3 -12.9°
Maximum altitude 23:54:50 42° 110° (ESE) 1,295 8.2 -14.1°
Drops below altitude 10° 00:00:29 10° 41° (NE) 2,604 9.9 -15.2°
Enters shadow 00:01:37 - 38° (NE) 3,003 10.2 -15.5°
